EN

Hourly Weather Ozernoe

Today, 26 February, Friday

Time Temperature Precipitation Wind Pressure Humidity
00:00 -19°C° 0 mm 1 mps 734 mmHg 83%
01:00 -19°C° 0 mm 1 mps 734 mmHg 81%
02:00 -21°C° 0 mm 2 mps 734 mmHg 79%
03:00 -23°C° 0 mm 2 mps 734 mmHg 78%
04:00 -23°C° 0 mm 2 mps 735 mmHg 79%
05:00 -20°C° 0 mm 1 mps 736 mmHg 81%
06:00 -21°C° 0 mm 0 mps 736 mmHg 86%
07:00 -20°C° 0 mm 1 mps 737 mmHg 83%
08:00 -20°C° 0 mm 1 mps 737 mmHg 80%
09:00 -20°C° 0 mm 1 mps 738 mmHg 77%
10:00 -20°C° 0 mm 2 mps 738 mmHg 73%
11:00 -19°C° 0 mm 2 mps 738 mmHg 69%
12:00 -18°C° 0 mm 2 mps 738 mmHg 66%
13:00 -18°C° 0 mm 2 mps 738 mmHg 69%
14:00 -18°C° 0 mm 2 mps 738 mmHg 72%
15:00 -18°C° 0 mm 2 mps 738 mmHg 75%
16:00 -17°C° 0.1 mm 1 mps 738 mmHg 82%
17:00 -19°C° 0.1 mm 1 mps 739 mmHg 89%
18:00 -20°C° 0.1 mm 0 mps 739 mmHg 97%
19:00 -20°C° 0.1 mm 0 mps 740 mmHg 97%
20:00 -21°C° 0.1 mm 0 mps 740 mmHg 97%
21:00 -21°C° 0.1 mm 0 mps 741 mmHg 97%
22:00 -22°C° 0 mm 0 mps 741 mmHg 96%
23:00 -22°C° 0 mm 0 mps 741 mmHg 96%

Tomorrow, 27 February, Saturday

Time Temperature Precipitation Wind Pressure Humidity
00:00 -23°C° 0 mm 0 mps 741 mmHg 95%
01:00 -22°C° 0 mm 0 mps 741 mmHg 94%
02:00 -22°C° 0 mm 0 mps 741 mmHg 93%
03:00 -22°C° 0 mm 0 mps 741 mmHg 92%
04:00 -22°C° 0 mm 0 mps 741 mmHg 92%
05:00 -22°C° 0 mm 0 mps 741 mmHg 92%
06:00 -22°C° 0 mm 0 mps 741 mmHg 92%
07:00 -21°C° 0 mm 0 mps 741 mmHg 89%
08:00 -21°C° 0 mm 0 mps 740 mmHg 86%
09:00 -20°C° 0 mm 0 mps 740 mmHg 83%
10:00 -18°C° 0 mm 0 mps 740 mmHg 80%
11:00 -17°C° 0 mm 0 mps 740 mmHg 76%
12:00 -15°C° 0 mm 1 mps 740 mmHg 73%
13:00 -15°C° 0 mm 1 mps 739 mmHg 76%
14:00 -15°C° 0 mm 1 mps 739 mmHg 80%
15:00 -17°C° 0 mm 2 mps 739 mmHg 83%
16:00 -17°C° 0 mm 1 mps 739 mmHg 88%
17:00 -18°C° 0 mm 1 mps 739 mmHg 93%
18:00 -20°C° 0 mm 1 mps 739 mmHg 98%
19:00 -20°C° 0 mm 1 mps 740 mmHg 97%
20:00 -21°C° 0 mm 1 mps 740 mmHg 96%
21:00 -22°C° 0 mm 1 mps 741 mmHg 96%
22:00 -22°C° 0 mm 1 mps 741 mmHg 94%
23:00 -22°C° 0 mm 1 mps 741 mmHg 92%

Day after tomorrow, 28 February, Sunday

Time Temperature Precipitation Wind Pressure Humidity
00:00 -22°C° 0 mm 1 mps 741 mmHg 91%
01:00 -22°C° 0 mm 1 mps 741 mmHg 89%
02:00 -22°C° 0 mm 1 mps 741 mmHg 87%
03:00 -24°C° 0 mm 2 mps 741 mmHg 85%
04:00 -24°C° 0 mm 2 mps 741 mmHg 84%
05:00 -24°C° 0 mm 2 mps 741 mmHg 83%
06:00 -24°C° 0 mm 2 mps 741 mmHg 82%
07:00 -23°C° 0 mm 2 mps 741 mmHg 80%
08:00 -20°C° 0 mm 2 mps 741 mmHg 79%
09:00 -18°C° 0 mm 2 mps 741 mmHg 77%
10:00 -16°C° 0 mm 2 mps 740 mmHg 73%
11:00 -13°C° 0 mm 2 mps 740 mmHg 68%
12:00 -10°C° 0 mm 2 mps 739 mmHg 64%
13:00 -9°C° 0 mm 2 mps 739 mmHg 65%
14:00 -8°C° 0 mm 2 mps 738 mmHg 66%
15:00 -7°C° 0 mm 2 mps 738 mmHg 66%
16:00 -8°C° 0 mm 2 mps 737 mmHg 71%
17:00 -8°C° 0 mm 1 mps 737 mmHg 76%
18:00 -9°C° 0 mm 1 mps 736 mmHg 81%
19:00 -9°C° 0 mm 1 mps 736 mmHg 81%
20:00 -10°C° 0 mm 2 mps 736 mmHg 82%
21:00 -10°C° 0 mm 2 mps 735 mmHg 82%
22:00 -9°C° 0 mm 2 mps 735 mmHg 82%
23:00 -9°C° 0 mm 2 mps 734 mmHg 83%

1 March, Monday

Time Temperature Precipitation Wind Pressure Humidity
00:00 -9°C° 0 mm 2 mps 734 mmHg 83%
01:00 -9°C° 0 mm 2 mps 733 mmHg 84%
02:00 -9°C° 0 mm 2 mps 733 mmHg 84%
03:00 -9°C° 0 mm 2 mps 732 mmHg 85%
04:00 -8°C° 0 mm 2 mps 732 mmHg 84%
05:00 -8°C° 0 mm 2 mps 731 mmHg 83%
06:00 -8°C° 0 mm 2 mps 731 mmHg 83%
07:00 -8°C° 0 mm 3 mps 730 mmHg 80%
08:00 -7°C° 0 mm 3 mps 730 mmHg 77%
09:00 -6°C° 0 mm 3 mps 729 mmHg 74%
10:00 -4°C° 0 mm 3 mps 729 mmHg 72%
11:00 -2°C° 0 mm 4 mps 728 mmHg 70%
12:00 -1°C° 0 mm 4 mps 728 mmHg 68%
13:00 0°C° 0 mm 4 mps 728 mmHg 70%
14:00 +1°C° 0 mm 3 mps 728 mmHg 72%
15:00 +1°C° 0 mm 3 mps 728 mmHg 74%
16:00 0°C° 0.1 mm 3 mps 728 mmHg 77%
17:00 -1°C° 0.1 mm 2 mps 728 mmHg 79%
18:00 -1°C° 0.1 mm 2 mps 728 mmHg 82%
19:00 -2°C° 0.1 mm 2 mps 728 mmHg 82%
20:00 -2°C° 0.1 mm 2 mps 728 mmHg 82%
21:00 -3°C° 0.1 mm 2 mps 728 mmHg 82%
22:00 -3°C° 0 mm 2 mps 728 mmHg 81%
23:00 -3°C° 0 mm 2 mps 727 mmHg 81%

2 March, Tuesday

Time Temperature Precipitation Wind Pressure Humidity
00:00 -3°C° 0 mm 2 mps 727 mmHg 81%
01:00 -3°C° 0 mm 2 mps 727 mmHg 79%
02:00 -4°C° 0 mm 3 mps 727 mmHg 77%
03:00 -4°C° 0 mm 3 mps 726 mmHg 75%
04:00 -5°C° 0 mm 3 mps 726 mmHg 76%
05:00 -5°C° 0 mm 3 mps 727 mmHg 77%
06:00 -5°C° 0 mm 3 mps 727 mmHg 77%
07:00 -5°C° 0 mm 3 mps 727 mmHg 77%
08:00 -4°C° 0 mm 2 mps 727 mmHg 77%
09:00 -3°C° 0 mm 2 mps 727 mmHg 78%
10:00 -2°C° 0 mm 2 mps 727 mmHg 76%
11:00 -1°C° 0 mm 2 mps 727 mmHg 74%
12:00 +2°C° 0 mm 2 mps 727 mmHg 72%
13:00 +1°C° 0 mm 2 mps 727 mmHg 76%
14:00 +1°C° 0 mm 2 mps 727 mmHg 79%
15:00 +1°C° 0 mm 2 mps 727 mmHg 83%
16:00 -1°C° 0.3 mm 2 mps 727 mmHg 88%
17:00 0°C° 0.3 mm 1 mps 726 mmHg 92%
18:00 -2°C° 0.3 mm 0 mps 726 mmHg 97%
19:00 -2°C° 0.6 mm 0 mps 726 mmHg 97%
20:00 -3°C° 0.6 mm 0 mps 726 mmHg 97%
21:00 -3°C° 0.6 mm 0 mps 726 mmHg 97%
22:00 -3°C° 0.5 mm 0 mps 726 mmHg 97%
23:00 -4°C° 0.5 mm 0 mps 726 mmHg 96%

3 March, Wednesday

Time Temperature Precipitation Wind Pressure Humidity
00:00 -4°C° 0.5 mm 0 mps 725 mmHg 96%
01:00 -4°C° 0.3 mm 0 mps 725 mmHg 96%
02:00 -5°C° 0.3 mm 0 mps 725 mmHg 96%
03:00 -5°C° 0.3 mm 0 mps 725 mmHg 96%
04:00 -6°C° 0.3 mm 0 mps 725 mmHg 96%
05:00 -6°C° 0.3 mm 0 mps 726 mmHg 96%
06:00 -6°C° 0.3 mm 0 mps 726 mmHg 96%
07:00 -5°C° 0.2 mm 0 mps 726 mmHg 95%
08:00 -5°C° 0.2 mm 0 mps 727 mmHg 94%
09:00 -4°C° 0.2 mm 0 mps 727 mmHg 93%
10:00 -3°C° 0.2 mm 1 mps 727 mmHg 92%
11:00 -2°C° 0.2 mm 1 mps 727 mmHg 91%
12:00 -1°C° 0.2 mm 1 mps 727 mmHg 90%
13:00 -2°C° 0.1 mm 1 mps 728 mmHg 91%
14:00 -2°C° 0.1 mm 1 mps 728 mmHg 91%
15:00 -4°C° 0.1 mm 2 mps 728 mmHg 91%
16:00 -3°C° 0.1 mm 1 mps 728 mmHg 93%
17:00 -4°C° 0.1 mm 1 mps 729 mmHg 95%
18:00 -6°C° 0.1 mm 0 mps 729 mmHg 97%
19:00 -6°C° 0.1 mm 0 mps 729 mmHg 96%
20:00 -7°C° 0.1 mm 0 mps 730 mmHg 96%
21:00 -7°C° 0.1 mm 0 mps 730 mmHg 96%
22:00 -8°C° 0 mm 0 mps 730 mmHg 95%
23:00 -8°C° 0 mm 1 mps 730 mmHg 94%
Show more

We Need Your Consent

Meteoprog and our Service Providers may store and access personal data such as cookies, device identifiers or other similar technologies on your device and process such data to personalise content and ads, as well as provide social media features and to analyse the traffic.

  • Store and/or access information on your device

    Cookies, device identifiers or other information can be stored or accessed on your device for the purposes indicated above.

  • Personalised ads and content, ad and content measurement, audience insights, and products development

    Ads and content can be personalised based on a profile. More data can be added to better personalise ads and content. Ad and content performance can be measured. Insights about the audience who saw the ads and content can be derived. Such data can be used to develop or improve user’s experience, systems and software.

By clicking ‘I Agree’ you will allow the use of indicated cookies, device identifiers, web beacons or other similar technologies. Your settings can be changed in the browser on your device.

For certain purposes, legitimate interests may be relied on, rather than consent. You can read more about this in our Privacy and Cookie Policy.